TDRS 3 1 19548U 88091B 26146.42957742 -.00000306 00000+0 00000+0 0 9990 2 19548 12.6183 341.1509 0039251 357.9871 10.3467 1.00264133125170 HST 1 20580U 90037B 26146.56168332 .00006127 00000+0 19424-3 0 9995 2 20580 28.4733 228.3470 0001307 263.5231 96.5216 15.30496544785250 TDRS 5 1 21639U 91054B 26146.38340832 .00000077 00000+0 00000+0 0 9992 2 21639 14.0742 353.9453 0006476 287.2054 293.3081 1.00266408127490 TDRS 6 1 22314U 93003B 26146.43018409 -.00000302 00000+0 00000+0 0 9999 2 22314 14.1828 357.2222 0006862 180.1833 175.4437 1.00279329122185 TDRS 7 1 23613U 95035B 26146.02920865 -.00000248 00000+0 00000+0 0 9991 2 23613 13.3867 348.3442 0011109 72.8588 282.1717 1.00270321113024 ISS (ZARYA) 1 25544U 98067A 26146.51869321 .00010776 00000+0 20062-3 0 9997 2 25544 51.6333 47.3708 0007418 100.2418 259.9408 15.49392600568395 TERRA 1 25994U 99068A 26146.59388875 .00000361 00000+0 82554-4 0 9990 2 25994 97.9469 196.9949 0001087 329.0424 152.4688 14.61082825406452 TDRS 8 1 26388U 00034A 26146.17075859 -.00000199 00000+0 00000+0 0 9993 2 26388 12.6499 31.5091 0005307 3.6323 354.9324 1.00271352 94959 TIMED 1 26998U 01055B 26146.53130186 .00001191 00000+0 11187-3 0 9993 2 26998 74.0676 278.6196 0000238 144.6946 215.4255 14.95230693327583 AQUA 1 27424U 02022A 26146.56648270 .00000747 00000+0 15851-3 0 9992 2 27424 98.4266 115.4198 0001870 63.6456 359.4858 14.62118724280111 SORCE 1 27651U 03004A 26146.35486545 .00003311 00000+0 24809-3 0 9990 2 27651 39.9926 26.2264 0018715 256.7565 103.1141 15.03572320268613 AURA 1 28376U 04026A 26146.55430589 .00000736 00000+0 15891-3 0 9998 2 28376 98.3407 102.8309 0001529 71.3828 288.7539 14.61289942163051 SWIFT 1 28485U 04047A 26146.22753358 .00052849 00000+0 48364-3 0 9991 2 28485 20.5542 354.0070 0003353 12.9859 347.0673 15.65986244183411 THEMIS A 1 30580U 07004A 26145.77199785 -.00000118 00000+0 29497-1 0 9990 2 30580 8.0648 111.6458 8373383 194.8109 96.2847 0.87844194 41081 THEMIS D 1 30797U 07004D 26145.26854484 -.00000146 00000+0 00000+0 0 9996 2 30797 7.4778 81.4336 8336030 227.5290 254.2022 0.87589238 40872 THEMIS E 1 30798U 07004E 26146.30723417 -.00000133 00000+0 00000+0 0 9990 2 30798 6.1064 99.4101 8444630 211.5413 356.7700 0.88042055 65726 FGRST (GLAST) 1 33053U 08029A 26145.89961985 .00003307 00000+0 11979-3 0 9998 2 33053 25.5841 359.2193 0008664 64.5189 295.6245 15.23802853992437 TDRS 11 1 39070U 13004A 26146.55384023 .00000081 00000+0 00000+0 0 9993 2 39070 3.4895 30.8922 0005136 16.7268 221.5090 1.00275134 46472 TDRS 12 1 39504U 14004A 26146.43122410 -.00000269 00000+0 00000+0 0 9992 2 39504 3.9568 18.7483 0002292 214.7352 124.8253 1.00274999 44053 GPM-CORE 1 39574U 14009C 26146.52607776 .00010995 00000+0 23516-3 0 9994 2 39574 64.9739 20.7282 0011876 266.4517 93.5265 15.45153083694467 MMS 1 1 40482U 15011A 26146.66668981 -.00000110 00000+0 00000+0 0 9996 2 40482 71.8928 349.0849 8343809 166.9515 263.2669 0.28363351 1387 MMS 2 1 40483U 15011B 26146.66668981 -.00000110 00000+0 00000+0 0 9997 2 40483 71.8919 349.0868 8344564 166.9564 263.2574 0.28362566 1384 MMS 3 1 40484U 15011C 26146.66668981 -.00000110 00000+0 00000+0 0 9998 2 40484 71.8948 349.0913 8343767 166.9509 263.2554 0.28362528 1387 MMS 4 1 40485U 15011D 26146.66668981 -.00000110 00000+0 00000+0 0 9999 2 40485 71.8913 349.0870 8343352 166.9586 263.2438 0.28362536 1387 TDRS 13 1 42915U 17047A 26146.57963824 -.00000099 00000+0 00000+0 0 9990 2 42915 3.4467 2.2216 0014298 101.8410 337.2941 1.00272284 32133 NOAA 20 (JPSS-1) 1 43013U 17073A 26146.57344431 .00000057 00000+0 47872-4 0 9992 2 43013 98.7766 86.2290 0001014 38.3289 321.7959 14.19507173441409